Regional Weather Roundup
Issued by NWS Newport/Morehead, NC

Home | Current Version | Previous Version | Text Only | Print | Product List | Glossary On
Versions: 1 2 3 4 5 6 7 8 9 10 11 12 13 14 15 16 17 18 19 20 21 22 23 24 25 26 27 28 29 30 31 32 33 34 35 36 37 38 39 40 41 42 43 44 45 46 47 48 49 50
000
ASUS42 KMHX 010610
RWRMHX
WEATHER ROUNDUP FOR EASTERN NORTH CAROLINA
NATIONAL WEATHER SERVICE NEWPORT/MOREHEAD CITY NC
200 AM EDT SAT NOV 01 2014

NOTE: "FAIR" INDICATES FEW OR NO CLOUDS BELOW 12,000 FEET
WITH NO SIGNIFICANT WEATHER AND/OR OBSTRUCTIONS TO VISIBILITY

NCZ015>017-031-032-045>047-102-103-010700-
NORTH COAST

CITY           SKY/WX    TMP DP  RH WIND       PRES   REMARKS
EDENTON        CLEAR     43  39  86 N5        29.73F
ELIZABETH CITY CLEAR     47  40  76 NW6       29.72F
KITTY HAWK     PTCLDY    53  44  70 NW6       29.69F
MANTEO         PTCLDY    53  46  76 N8        29.71F

$$

NCZ045>047-081-094-103-104-010700-
CENTRAL COAST

CITY           SKY/WX    TMP DP  RH WIND       PRES   REMARKS
FRISCO         MOCLDY    55  48  77 VRB7      29.70S
SWANQUARTER      N/A     46 N/A N/A VRB2      29.68S

$$

NCZ095-097-098-100-101-010700-
SOUTHERN COAST

CITY           SKY/WX    TMP DP  RH WIND       PRES   REMARKS
BEAUFORT       CLEAR     48  44  86 CALM      29.72F
CEDAR ISLAND     N/A     57 N/A N/A VRB14     29.77S
JACKSONVILLE   CLEAR     46  43  89 NW5       29.73F
PINEY ISLAND   CLEAR     56  44  64 N7        29.71F
WILMINGTON     CLEAR     45  42  89 NE5       29.73F


$$

NCZ011>013-027>030-043-044-078>080-089-090>093-098-010700-
COASTAL PLAIN

CITY           SKY/WX    TMP DP  RH WIND       PRES   REMARKS
AHOSKIE        NOT AVBL
CLINTON        MOCLDY    48  44  84 E3        29.74S
ELIZABETHTOWN  CLOUDY    49  44  80 E3        29.73F
GOLDSBORO      CLEAR     42  42  97 CALM      29.72F
GREENVILLE     FOG       41  39  93 CALM      29.77F VSB 1
HAVELOCK       CLEAR     51  44  77 E3        29.74F
KENANSVILLE    CLEAR     41  40  97 CALM      29.74F
KINSTON        CLEAR     39  38  95 CALM      29.75S
NEW BERN       CLEAR     48  42  80 CALM      29.74F
RICHLANDS      CLEAR     41  37  87 CALM      29.74F
ROCKY MOUNT    CLEAR     41  39  93 CALM      29.75F
WASHINGTON     CLEAR     42  40  95 CALM      29.74S
WHITEVILLE     CLOUDY    51  45  82 E3        29.72F

$$

AMZ130-135-150-152-154-156-158-170-250-252-270-ANZ085-086-088-633-658-670-010700-
MARINE OBSERVATIONS

STATION/POSITION TIME  TEMP    WIND        PRES    WAVE   SWELL
                       AIR SEA DIR/SP/G            HT/PER HT/PER
                 (UTC) (F)     (DEG/KT/KT) (MB)    (FT/S) (FT/S)
CHESAPEAKE LIGHT 0500   55     350/ 16/ 17 1006.9
64 E VA BEACH    0600   60 65  340/ 19/ 23 1003.6    6/ 6
DUCK             0600   54 64  330/ 15/ 17 1004.8
2 E DUCK         NOT AVBL
10 NE DUCK       0600      66                N/A     5/ 7
OREGON INLET     0600   56 63  320/ 12/ 16 1005.4
13E OREGON INLT  0600      68                N/A     6/ 7
HATTERAS CG      0600   57 63  340/ 18/ 22 1006.1
DIAMOND BUOY     0600   60     330/ 19/ 25 1004.8    5/ 8
17 S OCRACOKE    NOT AVBL
CAPE LOOKOUT     0500   55     360/ 10/ 13 1006.6
BEAUFORT LAB     0600   53 65   30/  4/  5 1005.6
30 SE NEW RIVER  0600   60 73   40/  8/ 12 1005.8    4/ 5   3/ 5
5 SE WRIGHTSVLE  0500   58 71  100/  6/ 10   N/A
225 S CAPE HAT   0511   70 77  250/ 10/ 12 1004.6    4/ 9   3/ 9
41 SE CHARLESTON 0600   62 77  250/  4/  6 1006.5    4/ 7   3/ 7

$$



USA.gov is the U.S. government's official web portal to all federal, state and local government web resources and services.